This demonstration page uses our WeatherBlox Daily Observations layout. Learn more.

41.55636, -103.73856

Hourly Observations for December 28, 2019

Temp ( °F °C ) Dew Point ( °F °C ) Humidity (%) Winds ( mph kmh ) Pressure ( in mb ) Visibility ( mi km ) Precip ( " mm )
12:58 am 00:58 Cloudy 33 0.3 28 -2.1 84 84 SE 5 7 29.91 1013 10 16.0934 0 0
1:58 am 01:58 Cloudy 32 -0.1 29 -1.8 88 88 SSE 7 11 29.89 1012 10 16.0934 0 0
2:58 am 02:58 Cloudy with Light Rain 31 -0.7 29 -1.4 95 95 SSE 5 7 29.88 1012 7 11.26538 0 0
3:58 am 03:58 Cloudy with Light Rain/Snow 31 -0.7 30 -1.1 97 97 ESE 6 9 29.85 1011 5 8.0467 0.01 0.254
4:58 am 04:58 Cloudy with Light Snow 30 -1.1 30 -1.3 99 99 ESE 6 9 29.85 1011 3 4.82802 0 0
5:58 am 05:58 Cloudy with Light Snow 30 -1.2 29 -1.4 99 99 ESE 5 7 29.83 1010 7 11.26538 0.01 0.254
6:58 am 06:58 Cloudy with Light Snow Showers 30 -1.1 29 -1.5 97 97 N 6 9 29.8 1009 2 3.21868 0 0
7:58 am 07:58 Mostly Cloudy with Freezing Fog 29 -1.6 29 -1.8 99 99 Calm 29.81 1010 3 4.82802 0 0
8:58 am 08:58 Mostly Cloudy with Light Snow Showers 29 -1.5 29 -1.6 99 99 Calm 29.79 1009 0.5 0.80467 0.01 0.254
9:58 am 09:58 Mostly Cloudy with Scattered Snow Showers 29 -1.5 29 -1.7 99 99 NNW 6 9 29.78 1009 1 1.60934 0.01 0.254
10:58 am 10:58 Cloudy with Light Snow 29 -1.7 29 -1.9 99 99 NNW 7 11 29.77 1008 5 8.0467 0 0
11:58 am 11:58 Cloudy with Light Snow 29 -1.4 29 -1.5 99 99 N 9 15 29.79 1009 4 6.43736 0 0
12:58 pm 12:58 Cloudy with Light Snow 26 -3.1 26 -3.3 99 99 NW 15 24 29.81 1010 2.5 4.02335 0 0
1:58 pm 13:58 Cloudy with Light Snow 27 -3 25 -3.7 95 95 N 14 22 29.83 1010 3 4.82802 0 0
2:58 pm 14:58 Cloudy with Light Snow 25 -3.9 24 -4.4 96 96 NNW 13 20 29.85 1011 2.25 3.621015 0 0
3:59 pm 15:59 Cloudy with Light Snow 25 -4 24 -4.7 95 95 NNW 15 24 29.88 1012 5 8.0467 0 0
4:59 pm 16:59 Windy with Snow Likely 25 -3.7 24 -4.7 93 93 N 20 31 29.91 1013 10 16.0934 0 0
5:58 pm 17:58 Windy with Snow Likely 24 -4.2 22 -5.4 91 91 N 22 35 29.91 1013 2 3.21868 0 0
6:58 pm 18:58 Windy with Snow Likely 24 -4.4 22 -5.6 91 91 N 23 37 29.91 1013 1 1.60934 0 0
7:59 pm 19:59 Mostly Cloudy with Snow 24 -4.5 22 -5.3 94 94 N 17 28 29.91 1013 0.5 0.80467 0 0
8:58 pm 20:58 Cloudy with Snow 24 -4.5 22 -5.7 91 91 N 18 30 29.9 1013 0.5 0.80467 0 0
9:59 pm 21:59 Windy with Snow Likely 23 -4.8 21 -6 91 91 NNW 23 37 29.91 1013 1 1.60934 0 0
10:58 pm 22:58 Mostly Cloudy with Scattered Snow Showers 23 -5 19 -7 86 86 NNW 22 35 29.91 1013 3 4.82802 0 0
11:58 pm 23:58 Mostly Cloudy with Scattered Snow Showers 22 -5.4 19 -7 89 89 NNW 22 35 29.93 1014 6 9.65604 0 0

Powered by AerisWeather